Ellington Field, TX

8:13 PM CST on November 24, 2017 (GMT -0600)
Ellington

Weather History for KEFD - January, 2013

Change the Weather History Date:

Thursday, January 17, 2013

  Actual Average Record
Temperature  
Mean Temperature 48 °F -  
Max Temperature 62 °F 62 °F 78 °F (1999)
Min Temperature 33 °F 44 °F 32 °F (1997)
Degree Days  
Heating Degree Days 18    
Moisture  
Dew Point 28 °F    
Average Humidity 46    
Maximum Humidity 75    
Minimum Humidity 29    
Precipitation  
Precipitation 0.00 in - - ()
Sea Level Pressure  
Sea Level Pressure 30.38 in    
Wind  
Wind Speed 2 mph (NW)    
Max Wind Speed 13 mph    
Max Gust Speed -    
Visibility 10 miles    
Events      
Averages and records for this station are not official NWS values.
T = Trace of Precipitation, MM = Missing Value Source: NWS Daily Summary

Daily Weather History Graph

Daily Weather History Graph

Search for Another Location

Airport or City:

Trip Planner

Search our weather history database for the weather conditions in past years. The results will help you decide how hot, cold, wet, or windy it might be!

Date:

Astronomy

Jan. 17, 2013 Rise Set
Actual Time 7:16 AM CST 5:45 PM CST
Civil Twilight 6:50 AM CST 6:11 PM CST
Nautical Twilight 6:21 AM CST 6:40 PM CST
Astronomical Twilight 5:52 AM CST 7:09 PM CST
Moon 10:56 AM CST (1/17) No Moon Set
Length of Visible Light 11h 21m
Length of Day
10h 29m
Waxing Crescent, 38% of the Moon is Illuminated
Jan 17
Waxing Crescent
Jan 18
First Quarter
Jan 26
Full
Feb 3
Last Quarter
Feb 10
New

Hourly Weather History & Observations

Time (CST) Temp. Windchill Dew Point Humidity Pressure Visibility Wind Dir Wind Speed Gust Speed Precip Events Conditions
12:50 AM 39.2 °F - 21.2 °F 49% 30.29 in 10.0 mi Calm Calm - N/A   Partly Cloudy
1:50 AM 37.4 °F - 21.2 °F 52% 30.30 in 10.0 mi Calm Calm - N/A   Partly Cloudy
2:50 AM 37.4 °F - 21.2 °F 52% 30.31 in 10.0 mi Calm Calm - N/A   Partly Cloudy
3:50 AM 37.4 °F - 21.2 °F 52% 30.32 in 10.0 mi Calm Calm - N/A   Clear
4:50 AM 35.6 °F - 21.2 °F 56% 30.33 in 10.0 mi Calm Calm - N/A   Clear
5:50 AM 35.6 °F - 23.0 °F 60% 30.34 in 10.0 mi Calm Calm - N/A   Clear
6:50 AM 33.8 °F - 24.8 °F 70% 30.37 in 10.0 mi Calm Calm - N/A   Partly Cloudy
7:50 AM 35.6 °F - 28.4 °F 75% 30.38 in 7.0 mi Calm Calm - N/A   Partly Cloudy
8:50 AM 37.4 °F - 28.4 °F 70% 30.42 in 7.0 mi North - - N/A   Clear
9:50 AM 46.4 °F 44.3 °F 30.2 °F 53% 30.44 in 9.0 mi NNW 4.6 mph - N/A   Clear
10:50 AM 53.6 °F - 28.4 °F 38% 30.43 in 10.0 mi NW 8.1 mph - N/A   Clear
11:50 AM 55.4 °F - 24.8 °F 31% 30.41 in 10.0 mi NNW 8.1 mph - N/A   Clear
12:50 PM 57.2 °F - 26.6 °F 31% 30.38 in 10.0 mi WNW 6.9 mph - N/A   Partly Cloudy
1:50 PM 60.8 °F - 28.4 °F 29% 30.34 in 10.0 mi WNW 11.5 mph - N/A   Partly Cloudy
2:50 PM 60.8 °F - 28.4 °F 29% 30.34 in 10.0 mi NNW 10.4 mph - N/A   Partly Cloudy
3:50 PM 62.6 °F - 30.2 °F 30% 30.35 in 10.0 mi NNW 12.7 mph - N/A   Partly Cloudy
4:50 PM 62.6 °F - 30.2 °F 30% 30.38 in 10.0 mi NW 8.1 mph - N/A   Partly Cloudy
5:50 PM 60.8 °F - 30.2 °F 31% 30.40 in 10.0 mi North 6.9 mph - N/A   Partly Cloudy
6:50 PM 57.2 °F - 32.0 °F 38% 30.42 in 10.0 mi Calm Calm - N/A   Clear
7:50 PM 57.2 °F - 30.2 °F 36% 30.44 in 10.0 mi Calm Calm - N/A   Clear
8:50 PM 51.8 °F - 32.0 °F 47% 30.46 in 10.0 mi Calm Calm - N/A   Clear
9:50 PM 53.6 °F - 33.8 °F 47% 30.46 in 10.0 mi Calm Calm - N/A   Clear
10:50 PM 53.6 °F - 33.8 °F 47% 30.46 in 10.0 mi Calm Calm - N/A   Clear
11:50 PM 51.8 °F - 33.8 °F 50% 30.46 in 10.0 mi Calm Calm - N/A   Clear